User: anonymous   Login
Location: CNYAC Observatory
(43.2150°N, 74.9500°W)
Time: 02:52:02
(UTC-05:00)
Language:

Cosmos 1300 Rocket - Orbit

View from above orbital plane
View from above orbital plane
View from above satellite
View from above satellite

Ground track
Ground track

The orbit data is extracted from the following two-line orbital elements,

1 12786U 81082B   16342.52490420  .00000129  00000-0  12393-4 0  9999
2 12786  82.4871 148.3450 0017990 163.0218 197.1604 14.84657202906370
Epoch (UTC): 07 December 2016 12:35:51
Eccentricity: 0.0017990
inclination: 82.4871°
perigee height: 602 km
apogee height: 627 km
right ascension of ascending node: 148.3450°
argument of perigee: 163.0218°
revolutions per day: 14.84657202
mean anomaly at epoch: 197.1604°
orbit number at epoch: 90637

The dashed part of the orbit path shows where the satellite is in the earth's shadow,  

DLR